Weather History for Manteo, NC

Change the Weather History Date:

Wednesday, November 21, 2012

  Actual Average Record
Temperature  
Mean Temperature 54 °F -  
Max Temperature 57 °F 59 °F 74 °F (1978)
Min Temperature 51 °F 46 °F 31 °F (1987)
Degree Days  
Heating Degree Days 11    
Growing Degree Days 4 (Base 50)    
Moisture  
Dew Point 47 °F    
Average Humidity 79    
Maximum Humidity 88    
Minimum Humidity 67    
Precipitation  
Precipitation 0.00 in - - ()
Sea Level Pressure  
Sea Level Pressure 30.07 in    
Wind  
Wind Speed 13 mph (NNE)    
Max Wind Speed 22 mph    
Max Gust Speed 28 mph    
Visibility 10 miles    
Events      
Averages and records for this station are not official NWS values.
T = Trace of Precipitation, MM = Missing Value Source: NWS Daily Summary

Daily Weather History Graph

Daily Weather History Graph

Search for Another Location

Airport:

Trip Planner

Search our weather history database for the weather conditions in past years. The results will help you decide how hot, cold, wet, or windy it might be!

Date:

Astronomy

Nov. 21, 2012 Rise Set
Actual Time 6:45 AM EST 4:51 PM EST
Civil Twilight 6:17 AM EST 5:19 PM EST
Nautical Twilight 5:46 AM EST 5:50 PM EST
Astronomical Twilight 5:16 AM EST 6:21 PM EST
Moon 12:56 PM EST (11/21) 12:14 AM EST (11/21)
Length of Visible Light 11h 01m
Length of Day
10h 06m
First Quarter, 61% of the Moon is Illuminated
Nov 21
First Quarter
Nov 28
Full
Dec 6
Last Quarter
Dec 13
New
Dec 20
First Quarter

Hourly Weather History & Observations

Time (EST) Temp. Dew Point Humidity Pressure Visibility Wind Dir Wind Speed Gust Speed Precip Events Conditions
12:15 AM 51.8 °F 46.4 °F 82% 30.06 in 10.0 mi North 11.5 mph - N/A   Unknown
12:35 AM 51.8 °F 46.4 °F 82% 30.05 in 10.0 mi North 12.7 mph - N/A   Unknown
12:55 AM 51.8 °F 46.4 °F 82% 30.04 in 10.0 mi North 10.4 mph 16.1 mph N/A   Unknown
1:15 AM 51.8 °F 46.4 °F 82% 30.04 in 10.0 mi NNE 11.5 mph 16.1 mph N/A   Unknown
1:35 AM 51.8 °F 46.4 °F 82% 30.04 in 10.0 mi North 10.4 mph 16.1 mph N/A   Unknown
1:55 AM 51.8 °F 46.4 °F 82% 30.04 in 10.0 mi NNE 10.4 mph 16.1 mph N/A   Unknown
2:15 AM 51.8 °F 46.4 °F 82% 30.04 in 10.0 mi NNE 13.8 mph 18.4 mph N/A   Unknown
2:35 AM 51.8 °F 46.4 °F 82% 30.03 in 10.0 mi NNE 10.4 mph - N/A   Unknown
2:55 AM 51.8 °F 48.2 °F 88% 30.03 in 10.0 mi NNE 10.4 mph 17.3 mph N/A   Unknown
3:15 AM 51.8 °F 48.2 °F 88% 30.03 in 10.0 mi NNE 10.4 mph - N/A   Unknown
3:35 AM 51.8 °F 48.2 °F 88% 30.03 in 10.0 mi NNE 13.8 mph 17.3 mph N/A   Unknown
3:55 AM 53.6 °F 48.2 °F 82% 30.03 in 10.0 mi North 10.4 mph - N/A   Unknown
4:15 AM 53.6 °F 48.2 °F 82% 30.03 in 10.0 mi North 11.5 mph - N/A   Unknown
4:35 AM 53.6 °F 48.2 °F 82% 30.04 in 10.0 mi North 11.5 mph 18.4 mph N/A   Unknown
4:55 AM 53.6 °F 48.2 °F 82% 30.04 in 10.0 mi North 13.8 mph - N/A   Unknown
5:15 AM 53.6 °F 48.2 °F 82% 30.04 in 10.0 mi North 15.0 mph - N/A   Unknown
5:35 AM 53.6 °F 48.2 °F 82% 30.04 in 10.0 mi NNE 15.0 mph 21.9 mph N/A   Unknown
5:55 AM 53.6 °F 48.2 °F 82% 30.05 in 10.0 mi NNE 15.0 mph 19.6 mph N/A   Unknown
6:15 AM 53.6 °F 48.2 °F 82% 30.05 in 10.0 mi NNE 15.0 mph 18.4 mph N/A   Unknown
6:35 AM 53.6 °F 48.2 °F 82% 30.06 in 10.0 mi North 10.4 mph 17.3 mph N/A   Unknown
6:55 AM 51.8 °F 48.2 °F 88% 30.06 in 10.0 mi North 11.5 mph - N/A   Unknown
7:15 AM 53.6 °F 48.2 °F 82% 30.07 in 10.0 mi NNE 12.7 mph 17.3 mph N/A   Unknown
7:35 AM 53.6 °F 48.2 °F 82% 30.07 in 10.0 mi NNE 12.7 mph 18.4 mph N/A   Unknown
7:55 AM 53.6 °F 48.2 °F 82% 30.08 in 10.0 mi NNE 10.4 mph - N/A   Unknown
8:15 AM 53.6 °F 48.2 °F 82% 30.09 in 10.0 mi NNE 9.2 mph 16.1 mph N/A   Unknown
8:35 AM 53.6 °F 50.0 °F 88% 30.09 in 10.0 mi North 12.7 mph - N/A   Unknown
8:55 AM 53.6 °F 48.2 °F 82% 30.09 in 10.0 mi North 10.4 mph 19.6 mph N/A   Unknown
9:15 AM 53.6 °F 48.2 °F 82% 30.09 in 10.0 mi North 15.0 mph 20.7 mph N/A   Unknown
9:55 AM 55.4 °F 48.2 °F 77% 30.09 in 10.0 mi North 16.1 mph 20.7 mph N/A   Unknown
10:15 AM 55.4 °F 48.2 °F 77% 30.09 in 10.0 mi North 15.0 mph 21.9 mph N/A   Unknown
10:35 AM 55.4 °F 48.2 °F 77% 30.09 in 10.0 mi North 13.8 mph 18.4 mph N/A   Unknown
10:55 AM 53.6 °F 46.4 °F 77% 30.08 in 10.0 mi North 16.1 mph 21.9 mph N/A   Unknown
11:15 AM 55.4 °F 46.4 °F 72% 30.08 in 10.0 mi North 16.1 mph 23.0 mph N/A   Unknown
11:35 AM 57.2 °F 46.4 °F 67% 30.06 in 10.0 mi North 17.3 mph 24.2 mph N/A   Unknown
11:55 AM 57.2 °F 46.4 °F 67% 30.07 in 10.0 mi North 15.0 mph 26.5 mph N/A   Unknown
12:15 PM 55.4 °F 46.4 °F 72% 30.06 in 10.0 mi North 16.1 mph 24.2 mph N/A   Unknown
12:55 PM 55.4 °F 46.4 °F 72% 30.06 in 10.0 mi North 16.1 mph 23.0 mph N/A   Unknown
1:15 PM 55.4 °F 46.4 °F 72% 30.07 in 10.0 mi North 16.1 mph 25.3 mph N/A   Unknown
1:35 PM 55.4 °F 48.2 °F 77% 30.08 in 10.0 mi North 13.8 mph 20.7 mph N/A   Unknown
1:55 PM 55.4 °F 46.4 °F 72% 30.06 in 10.0 mi North 16.1 mph 24.2 mph N/A   Unknown
2:15 PM 55.4 °F 48.2 °F 77% 30.07 in 10.0 mi North 15.0 mph 21.9 mph N/A   Unknown
2:35 PM 53.6 °F 48.2 °F 82% 30.06 in 10.0 mi North 15.0 mph 20.7 mph N/A   Unknown
2:55 PM 53.6 °F 48.2 °F 82% 30.06 in 10.0 mi North 15.0 mph 20.7 mph N/A   Unknown
3:15 PM 55.4 °F 48.2 °F 77% 30.06 in 10.0 mi North 16.1 mph 23.0 mph N/A   Unknown
3:35 PM 55.4 °F 48.2 °F 77% 30.07 in 10.0 mi North 13.8 mph 25.3 mph N/A   Unknown
3:55 PM 53.6 °F 46.4 °F 77% 30.08 in 10.0 mi NNE 17.3 mph 21.9 mph N/A   Unknown
4:15 PM 53.6 °F 46.4 °F 77% 30.07 in 10.0 mi North 18.4 mph 24.2 mph N/A   Unknown
4:35 PM 53.6 °F 46.4 °F 77% 30.08 in 10.0 mi NNE 16.1 mph 20.7 mph N/A   Unknown
4:55 PM 53.6 °F 46.4 °F 77% 30.08 in 10.0 mi NNE 17.3 mph 24.2 mph N/A   Unknown
5:15 PM 53.6 °F 46.4 °F 77% 30.09 in 10.0 mi NNE 15.0 mph 24.2 mph N/A   Unknown
5:35 PM 53.6 °F 44.6 °F 72% 30.08 in 10.0 mi NNE 18.4 mph 25.3 mph N/A   Unknown
5:55 PM 51.8 °F 44.6 °F 76% 30.08 in 10.0 mi NNE 18.4 mph 24.2 mph N/A   Unknown
6:15 PM 51.8 °F 44.6 °F 76% 30.09 in 10.0 mi NNE 17.3 mph 25.3 mph N/A   Unknown
6:35 PM 51.8 °F 44.6 °F 76% 30.10 in 10.0 mi North 13.8 mph 23.0 mph N/A   Unknown
6:55 PM 51.8 °F 44.6 °F 76% 30.10 in 10.0 mi NNE 17.3 mph 21.9 mph N/A   Unknown
7:15 PM 51.8 °F 44.6 °F 76% 30.10 in 10.0 mi NNE 16.1 mph 21.9 mph N/A   Unknown
7:55 PM 51.8 °F 42.8 °F 71% 30.10 in 10.0 mi North 15.0 mph 20.7 mph N/A   Unknown
8:15 PM 51.8 °F 42.8 °F 71% 30.10 in 10.0 mi North 15.0 mph 20.7 mph N/A   Unknown
8:55 PM 51.8 °F 44.6 °F 76% 30.11 in 10.0 mi North 12.7 mph 18.4 mph N/A   Unknown
9:35 PM 51.8 °F 44.6 °F 76% 30.11 in 10.0 mi North 16.1 mph 24.2 mph N/A   Unknown
9:55 PM 51.8 °F 44.6 °F 76% 30.10 in 10.0 mi North 18.4 mph - N/A   Unknown
10:15 PM 51.8 °F 44.6 °F 76% 30.10 in 10.0 mi NNE 17.3 mph 24.2 mph N/A   Unknown
10:35 PM 51.8 °F 44.6 °F 76% 30.09 in 10.0 mi North 18.4 mph 26.5 mph N/A   Unknown
10:55 PM 51.8 °F 44.6 °F 76% 30.09 in 10.0 mi NNE 17.3 mph 25.3 mph N/A   Unknown
11:15 PM 51.8 °F 44.6 °F 76% 30.08 in 10.0 mi North 20.7 mph 27.6 mph N/A   Unknown
11:35 PM 51.8 °F 44.6 °F 76% 30.08 in 10.0 mi NNE 19.6 mph 27.6 mph N/A   Unknown
11:55 PM 51.8 °F 44.6 °F 76% 30.07 in 10.0 mi NNE 21.9 mph 26.5 mph N/A   Unknown